User: anonymous   Login
Location: Ostrava
(49.8330°N, 18.2830°E)
Time: 12:09:40
(UTC+02:00)
Language:

Cosmos 2221 - Orbit

View from above orbital plane
View from above orbital plane
View from above satellite
View from above satellite

Ground track
Ground track

The orbit data is extracted from the following two-line orbital elements,

1 22236U 92080A   15209.85659977  .00000527  00000-0  55958-4 0  9997
2 22236 082.5098 349.9633 0018264 123.4493 236.8474 14.87001590224853
Epoch (UTC): 28 July 2015 20:33:30
Eccentricity: 0.0018264
inclination: 82.5098°
perigee height: 594 km
apogee height: 620 km
right ascension of ascending node: 349.9633°
argument of perigee: 123.4493°
revolutions per day: 14.87001590
mean anomaly at epoch: 236.8474°
orbit number at epoch: 22485

The dashed part of the orbit path shows where the satellite is in the earth's shadow,  

DLR